Weather History for Olathe, KS

Change the Weather History Date:

Thursday, April 10, 2014

  Actual Average Record
Temperature  
Mean Temperature 60 °F 53 °F  
Max Temperature 68 °F 64 °F 85 °F (2011)
Min Temperature 51 °F 43 °F 23 °F (1952)
Degree Days  
Heating Degree Days 5 12  
Month to date heating degree days 148 134  
Since 1 July heating degree days 5385 4651  
Cooling Degree Days 0 1  
Month to date cooling degree days 0 2  
Year to date cooling degree days 0 3  
Growing Degree Days 10 (Base 50)    
Moisture  
Dew Point 37 °F    
Average Humidity 44    
Maximum Humidity 57    
Minimum Humidity 30    
Precipitation  
Precipitation 0.00 in 0.13 in 1.26 in (2001)
Month to date precipitation 0.98 1.00  
Year to date precipitation 2.26 6.32  
Sea Level Pressure  
Sea Level Pressure 29.83 in    
Wind  
Wind Speed 12 mph (North)    
Max Wind Speed 22 mph    
Max Gust Speed 33 mph    
Visibility 10 miles    
Events      
T = Trace of Precipitation, MM = Missing Value Source: NWS Daily Summary

Daily Weather History Graph

Daily Weather History Graph

Search for Another Location

Airport:

Trip Planner

Search our weather history database for the weather conditions in past years. The results will help you decide how hot, cold, wet, or windy it might be!

Date:

Astronomy

Apr. 10, 2014 Rise Set
Actual Time 6:49 AM CDT 7:51 PM CDT
Civil Twilight 6:22 AM CDT 8:18 PM CDT
Nautical Twilight 5:50 AM CDT 8:51 PM CDT
Astronomical Twilight 5:16 AM CDT 9:24 PM CDT
Moon 3:38 PM CDT (4/10) 4:10 AM CDT (4/10)
Length of Visible Light 13h 55m
Length of Day
13h 01m
Waxing Gibbous, 80% of the Moon is Illuminated
Apr 10
Waxing Gibbous
Apr 15
Full
Apr 22
Last Quarter
Apr 29
New
May 6
First Quarter

Hourly Weather History & Observations

Time (CDT) Temp. Dew Point Humidity Pressure Visibility Wind Dir Wind Speed Gust Speed Precip Events Conditions
12:53 AM 63.0 °F 39.0 °F 41% 29.75 in 10.0 mi SSW 19.6 mph 28.8 mph N/A   Clear
1:53 AM 62.1 °F 39.9 °F 44% 29.74 in 10.0 mi SSW 17.3 mph 23.0 mph N/A   Clear
2:53 AM 62.1 °F 41.0 °F 46% 29.72 in 10.0 mi SSW 17.3 mph 28.8 mph N/A   Clear
3:53 AM 60.1 °F 42.1 °F 51% 29.70 in 10.0 mi SSW 17.3 mph 29.9 mph N/A   Clear
4:53 AM 60.1 °F 42.1 °F 51% 29.68 in 10.0 mi SSW 16.1 mph 25.3 mph N/A   Clear
5:53 AM 59.0 °F 42.1 °F 53% 29.68 in 10.0 mi SSW 17.3 mph 25.3 mph N/A   Clear
6:53 AM 57.9 °F 42.1 °F 56% 29.78 in 10.0 mi NW 13.8 mph - N/A   Clear
7:53 AM 57.9 °F 43.0 °F 58% 29.76 in 10.0 mi SW 6.9 mph - N/A   Clear
9:53 AM 63.0 °F 45.0 °F 52% 29.78 in 10.0 mi West 10.4 mph 19.6 mph N/A   Clear
10:53 AM 66.0 °F 44.1 °F 45% 29.79 in 10.0 mi NW 8.1 mph - N/A   Clear
11:53 AM 66.0 °F 41.0 °F 40% 29.81 in 10.0 mi North 10.4 mph - N/A   Clear
12:53 PM 66.0 °F 42.1 °F 42% 29.82 in 10.0 mi NE 15.0 mph 21.9 mph N/A   Clear
1:53 PM 66.0 °F 39.0 °F 37% 29.86 in 10.0 mi NNE 15.0 mph 28.8 mph N/A   Clear
2:53 PM 66.9 °F 37.9 °F 34% 29.86 in 10.0 mi NNE 15.0 mph - N/A   Clear
3:53 PM 64.9 °F 36.0 °F 34% 29.87 in 10.0 mi NNE 17.3 mph - N/A   Clear
4:53 PM 62.1 °F 34.0 °F 35% 29.87 in 10.0 mi NNE 15.0 mph - N/A   Clear
6:53 PM 63.0 °F 32.0 °F 31% 29.92 in 10.0 mi North 11.5 mph - N/A   Clear
7:53 PM 59.0 °F 28.0 °F 31% 29.94 in 10.0 mi NNE 9.2 mph - N/A   Clear
8:53 PM 57.0 °F 26.1 °F 30% 29.96 in 10.0 mi North 5.8 mph - N/A   Clear
9:53 PM 54.0 °F 25.0 °F 33% 29.98 in 10.0 mi NE 5.8 mph - N/A   Clear
10:53 PM 54.0 °F 24.1 °F 31% 29.98 in 10.0 mi NE 4.6 mph - N/A   Clear
11:53 PM 52.0 °F 25.0 °F 35% 29.98 in 10.0 mi NE 4.6 mph - N/A   Clear